TARTU/ULENURME current weather conditions

sailwx.info

Wind from 130 at 6 knots

Air temperature 2.0° C
Visibility: greater than 5.4 NM
Dewpoint -0.0° C

Last reported at 2015-Mar-01 22:50 UTC.
Time now 2015-Mar-02 01:02 UTC

Location: N 58°18' E 026°44'.
View on Google Maps.

See reports from other nearby stations

  
Tides and Currents Weather Stations Pressure Air Temp Water Temp Dewpoint Dewpoint Depression Visibility Wind Speed Wind Dir Waves Ship Positions
date/time (UTC)wind fromknots sea level pressurealtimeterstation pressurevisibilityair tempwater tempwave heightnotes
2015-Mar-01 22:50 130 6 5.4 2.0
2015-Mar-01 21:50 140 7 5.4 2.0
2015-Mar-01 20:50 150 8 5.4 3.0
2015-Mar-01 19:50 150 8 5.4 3.0
2015-Mar-01 18:50 140 8 5.4 3.0
2015-Mar-01 17:50 140 10 5.4 3.0
2015-Mar-01 16:50 130 8 5.4 4.0
2015-Mar-01 15:50 160 9 5.4 4.0
2015-Mar-01 14:50 140 8 5.4 4.0
2015-Mar-01 13:50 160 11 5.4 5.0
2015-Mar-01 12:50 160 8 5.4 5.0
2015-Mar-01 09:50 150 8 3.0
2015-Mar-01 08:50 160 10 5.4 2.0
2015-Mar-01 07:50 150 8 5.4 1.0
2015-Mar-01 06:50 160 7 5.4 1.0
2015-Mar-01 05:50 170 5 5.4 1.0
2015-Mar-01 04:50 170 5 5.4-0.0
2015-Mar-01 03:50 160 6 5.4-0.0
2015-Mar-01 02:50 150 6 5.4 1.0
2015-Mar-01 01:50 170 4 5.4 1.0
2015-Mar-01 00:50 210 5 5.4 1.0
2015-Feb-28 23:50 170 5 3.2 1.0 Light snow.
2015-Feb-28 22:50 150 3 5.4-0.0
2015-Feb-28 21:50 160 3 4.9-0.0 Mist.
2015-Feb-28 20:50 180 4 5.4-0.0
2015-Feb-28 19:50 4.9 1.0 Mist.
2015-Feb-28 18:50 5.4 1.0
2015-Feb-28 17:50 5.4 1.0
2015-Feb-28 16:50 230 4 5.4 1.0
2015-Feb-28 15:50 260 2 4.9 1.0
2015-Feb-28 14:50 240 4 5.4 1.0
2015-Feb-28 13:50 240 2 5.4 1.0
2015-Feb-28 12:50 270 3 5.4 1.0
2015-Feb-28 11:50 5.4 1.0
2015-Feb-28 10:50 5.4 1.0
2015-Feb-28 09:50 1.6 1.0 Light snow. Mist.
2015-Feb-28 08:50 280 2 1.2 1.0 Light snow. Mist.
2015-Feb-28 07:50 1.9-0.0 Light snow. Mist.
2015-Feb-28 06:50 0.4-0.0 Light snow fog.
2015-Feb-28 05:50 0.2-0.0 Light snow.
2015-Feb-28 04:50 330 2 0.1-0.0 Fog.
2015-Feb-28 03:50 320 2 0.1-0.0 Snow grains.
2015-Feb-28 02:50 330 2 0.1-0.0 Fog.
2015-Feb-28 01:50 0.1-0.0 Fog.